www.pogodaiklimat.ru

Погода и климат >> Архив погоды >> Алжир >> Буира


ПОГОДА в Буире

  • Прогноз погоды в Буире
  • Монитор погоды в Буире

АРХИВ ПОГОДЫ в Буире

Время (UTC), дата Ветер
(напр.,м/с)
 
Видим.   Явления Облачность Т
(С)
Тd
(С)
f
(%)
Тe
(С)
Тes
(С)
Комфортность P
(гПа)
Po
(гПа)
Тmin
(С)
Tmax
(С)
R
(мм)
R24
(мм)
S
(см)
06 17.08 штиль 0 20 км ясно +21.3 +12.5 57 +24 +25 комфорт 1014.7 950.8 +21.3
09 17.08 СВ 2 20 км ясно +31.6 +12.2 31 +32 +44 жарко 1015.0 953.2
12 17.08 Ю 1 20 км 1/1 900 м
[Cu med, cong]
+35.7 +11.3 23 +35 +55 опасность
солнечного
удара
1013.7 952.8
15 17.08 С 2 20 км 4/4 900 м
[Cu med, cong]
+38.4 +10.2 18 +37 +42 очень
жарко
1011.4 951.1
18 17.08 С 4 20 км 1/1 900 м
[Cu med, cong]
+35.2 +13.1 26 +35 +36 очень
жарко
1011.2 950.3 +39.4
06 18.08 штиль 0 20 км 3/0
[Ac trans]
+25.4 +12.5 45 +27 +28 жарко 1010.5 947.8 +24.4
09 18.08 В 2 20 км 3/0
[Ac trans]
+33.0 +12.0 28 +33 +43 жарко 1010.7 949.5
12 18.08 В 1 20 км 1/0
[Ac trans]
+38.0 +11.9 21 +37 +58 опасность
солнечного
удара
1009.6 949.4
15 18.08 СЗ 5 20 км 3/3 1000 м
[Cu med, cong]
+39.1 +14.5 23 +40 +43 очень
душно
1008.1 948.2
18 18.08 СЗ 4 20 км 3/3 1000 м
[Cu med, cong]
+34.1 +14.4 31 +36 +36 душно 1008.8 947.9 +40.3
06 19.08 штиль 0 15 км 3/0
[Ac trans]
+23.5 +14.6 57 +26 +27 жарко 1011.2 948.0 +23.2
09 19.08 СЗ 1 15 км 3/0
[Ac trans]
+29.9 +19.6 54 +36 +47 очень
душно
1011.9 950.0
12 19.08 С 5 20 км 3/1 1000 м
[Cu med, cong Ac trans]
+34.2 +15.2 32 +36 +43 душно 1011.2 950.2
15 19.08 СЗ 5 20 км 1/1 1000 м
[Cu hum]
+35.3 +12.1 25 +35 +39 очень
жарко
1010.5 949.7
18 19.08 СЗ 3 20 км ясно +30.9 +17.4 44 +35 +35 очень
душно
1011.2 949.5 +35.9
06 20.08 штиль 0 20 км ясно +21.2 +15.0 68 +24 +25 комфорт 1012.3 948.6 +20.4
09 20.08 штиль 0 20 км ясно +29.6 +16.6 46 +33 +48 душно 1012.3 950.3
12 20.08 СЗ 4 20 км ясно +35.1 +14.2 29 +36 +48 очень
жарко
1011.7 950.8
15 20.08 СЗ 7 20 км 1/1 1000 м
[Cu med, cong]
+33.0 +19.8 46 +39 +41 очень
душно
1011.5 950.2
18 20.08 С 6 20 км 1/1 1000 м
[Cu med, cong]
+26.9 +19.5 64 +33 +33 очень
душно
1012.9 950.3 +35.7
06 21.08 С 2 6000 м 6/6 600 м
[Cu med, cong]
+22.1 +19.5 85 +28 +28 душно 1016.0 952.2 +21.9
09 21.08 штиль 0 15 км 3/3 1000 м
[Cu med, cong]
+28.0 +19.5 60 +34 +44 очень
душно
1015.3 952.8
12 21.08 Ю 1 20 км ясно +31.7 +18.0 44 +36 +57 опасность
солнечного
удара
1013.0 951.4
15 21.08 СЗ 6 20 км ясно +34.8 +20.0 42 +41 +44 опасность
перегрева
1010.9 950.0
18 21.08 СЗ 2 20 км 1/1 1000 м
[Cu med, cong]
+28.7 +20.5 61 +35 +36 очень
душно
1012.2 950.0 +35.8
06 22.08 С 1 7000 м 9/9 400 м
[Cu Sc]
+22.6 +21.0 91 +30 +30 очень
душно
1014.9 951.3 +22.6
09 22.08 С 3 10 км 5/4 800 м
[Cu med, cong Ac trans]
+26.9 +21.2 71 +34 +39 очень
душно
1016.2 953.4
12 22.08 С 5 20 км 5/1 800 м
[Cu med, cong Ac trans]
+27.3 +20.7 67 +34 +40 очень
душно
1015.5 952.8
15 22.08 С 7 20 км 4/3 800 м
[Cu med, cong Ac trans]
+27.0 +20.0 66 +33 +35 очень
душно
1014.9 952.2
18 22.08 С 5 20 км 3/3 800 м
[Cu med, cong]
+25.5 +17.9 63 +30 +30 душно 1014.9 951.9 +28.0
06 23.08 штиль 0 10 км 8/3 1000 м
[Cu hum Ac trans]
+19.2 +17.3 89 +21 +21 комфорт 1017.4 952.9 +18.9
09 23.08 штиль 0 20 км 1/1 1000 м
[Cu hum]
+25.2 +18.1 65 +30 +43 душно 1017.1 953.9
12 23.08 С 4 20 км 4/1 1000 м
[Cu hum Ac trans]
+31.2 +14.0 35 +33 +41 жарко 1014.9 953.0
15 23.08 СЗ 6 20 км 1/1 1000 м
[Cu hum]
+31.6 +16.8 41 +35 +38 очень
душно
1013.6 951.9
18 23.08 С 5 20 км 1/1 1000 м
[Cu hum]
+28.1 +16.2 48 +31 +31 душно 1013.8 951.4 +32.8

 

Местоположение метеостанции Буира (Алжир): широта 36.38 долгота 3.88 высота над уровнем моря 560 м.

В архиве по умолчанию представлена погода в Буире за последнюю неделю. Архивные данные за месяц целиком и за предыдущие месяцы, начиная с января 2011 года, Вы можете получить, выбрав интересующий диапазон дат из раскрывающегося списка и нажав кнопку "Ввод!".


*Определитесь, кто Вы:
робот инопланетянин человек

Внимание! Время в таблицах - всемирное. Для получения местного времени необходимо прибавить поправку, которая равна 1 ч.

Смотрите также архив погоды в соседних городах и на ближайших метеорологических станциях:

Погода в Айн-Бессеме (Алжир) (22 км)
Погода в Тизи-Узу (Алжир) (39 км)
Погода в Деллисе (Алжир) (60 км)
Погода Алжир аэропорт (Алжир) (68 км)
Погода в Алжире (Алжир) (82 км)
Погода в Бордж-Бу-Арреридже (Алжир) (87 км)
Погода в Мсиле (Алжир) (97 км)
Погода в Медеа (Алжир) (104 км)
Погода в Беджая (Алжир) (113 км)
Погода в Бу-Саада (Алжир) (120 км)

Пояснения к столбцам:

Ветер - указаны скорость ветра в м/с - средняя за 10 мин, порывы в срок и между сроками (в фигурных скобках) и направление, откуда дует ветер: С - северный, СВ - северо-восточный, В - восточный, ЮВ - юго-восточный, Ю - южный, ЮЗ - юго-западный, З - западный, СЗ - северо-западный.
Видимость - горизонтальная дальность видимости в метрах или километрах. При видимости от 1 до 10 км при отсутствии осадков обычно наблюдается дымка, при ухудшении видимости до 1 км и менее - туман. В сухую погоду видимость может ухудшаться дымом, пылью или мглою.
Явления - указаны атмосферные явления, наблюдавшиеся в срок или в последний час перед сроком; фигурными скобками обозначены явления, наблюдавшиеся между сроками (за 1-3 часа до срока); квадратными скобками обозначены град или гололедные отложения с указанием их диаметра в мм.
Облачность - указаны через наклонную черту общая и нижняя облачность в баллах и высота нижней границы облаков в метрах; квадратными скобками обозначены формы облаков: Ci - перистые, Cs - перисто-слоистые, Cc - перисто-кучевые, Ac - высококучевые, As - высокослоистые, Sc - слоисто-кучевые, Ns - слоисто-дождевые, Cu - кучевые, Cb - кучево-дождевые. Подробнее классификацию облаков см. в Атласе облаков (PDF).
T - Температура воздуха - температура, измеренная на высоте 2 м над землей.
Td - Температура точки росы - температура, при понижении до которой содержащийся в воздухе водяной пар достигнет насыщения.
f - Относительная влажность воздуха - влажноcть воздуха, измеренная на высоте 2 м над землей.
Te - Эффективная температура - температура, которую ощущает одетый по сезону человек в тени. Характеристика душности погоды. При расчете учитывается влияние влажности воздуха и скорости ветра на теплоощущения человека.
Tes - Эффективная температура на солнце - температура, которую ощущает человек, с поправкой на солнечный нагрев. Характеристика знойности погоды. Зависит от высоты солнца над горизонтом, облачности и скорости ветра. Ночью, в пасмурную погоду, а также при ветре 12 м/с и более поправка равна нулю.
P - Атмосферное давление - приведенное к уровню моря атмосферное давление.
Po - Атмосферное давление - измеренное на уровне метеостанции атмосферное давление.
Tmin - Минимальная температура - минимум температуры воздуха на высоте 2 м над землей.
Tmax - Максимальная температура - максимум температуры воздуха на высоте 2 м над землей.
R - Количество осадков - Количество выпавших осадков за период времени, мм. При наведении курсора мыши на число - период времени, за который выпало указанное количество осадков.
R24 - Количество осадков - Количество выпавших осадков за 24 часа, мм.
S - Снежный покров - Высота снежного покрова, см. При наведении курсора мыши на число - состояние снежного покрова и степень покрытия местности в баллах.